Weather History for KMIW - April, 2013

Change the Weather History Date:

Monday, April 15, 2013

  Actual Average Record
Temperature  
Mean Temperature 40 °F 49 °F  
Max Temperature 46 °F 61 °F 88 °F (2002)
Min Temperature 33 °F 37 °F 23 °F (2014)
Degree Days  
Heating Degree Days 25 16  
Month to date heating degree days 346 281  
Since 1 July heating degree days 6492 6582  
Cooling Degree Days 0 0  
Month to date cooling degree days 0 0  
Year to date cooling degree days 0 0  
Moisture  
Dew Point 33 °F    
Average Humidity 75    
Maximum Humidity 92    
Minimum Humidity 57    
Precipitation  
Precipitation T in 0.11 in 0.60 in (2011)
Month to date precipitation 2.85 1.29  
Sea Level Pressure  
Sea Level Pressure 29.86 in    
Wind  
Wind Speed 12 mph (West)    
Max Wind Speed 22 mph    
Max Gust Speed 28 mph    
Visibility 10 miles    
Events Rain    
T = Trace of Precipitation, MM = Missing Value Source: NWS Daily Summary

Daily Weather History Graph

Daily Weather History Graph

Search for Another Location

Airport or City:

Trip Planner

Search our weather history database for the weather conditions in past years. The results will help you decide how hot, cold, wet, or windy it might be!

Date:

Astronomy

Apr. 15, 2013 Rise Set
Actual Time 6:30 AM CDT 7:53 PM CDT
Civil Twilight 6:01 AM CDT 8:22 PM CDT
Nautical Twilight 5:26 AM CDT 8:57 PM CDT
Astronomical Twilight 4:49 AM CDT 9:34 PM CDT
Moon 9:54 AM CDT (4/15) 12:08 AM CDT (4/15)
Length of Visible Light 14h 20m
Length of Day
13h 22m
Waxing Crescent, 25% of the Moon is Illuminated
Apr 15
Waxing Crescent
Apr 18
First Quarter
Apr 25
Full
May 2
Last Quarter
May 9
New

Hourly Weather History & Observations

Time (CDT) Temp. Windchill Dew Point Humidity Pressure Visibility Wind Dir Wind Speed Gust Speed Precip Events Conditions
12:53 AM 46.0 °F 41.9 °F 42.1 °F 86% 29.65 in 10.0 mi WSW 8.1 mph - N/A   Overcast
1:53 AM 44.1 °F 39.5 °F 41.0 °F 89% 29.67 in 10.0 mi WSW 8.1 mph - N/A   Partly Cloudy
2:53 AM 44.1 °F 40.8 °F 37.9 °F 79% 29.68 in 10.0 mi SSW 5.8 mph - N/A   Clear
3:53 AM 39.9 °F 34.5 °F 37.0 °F 89% 29.69 in 10.0 mi South 8.1 mph - N/A   Clear
4:53 AM 41.0 °F 36.4 °F 35.1 °F 79% 29.70 in 10.0 mi SW 6.9 mph - N/A   Clear
5:53 AM 39.9 °F 33.4 °F 35.1 °F 83% 29.72 in 10.0 mi SW 10.4 mph - N/A   Clear
6:53 AM 36.0 °F 29.6 °F 34.0 °F 93% 29.76 in 10.0 mi West 8.1 mph - N/A   Clear
7:53 AM 41.0 °F 35.2 °F 32.0 °F 70% 29.78 in 10.0 mi West 9.2 mph - N/A   Clear
8:53 AM 43.0 °F 34.8 °F 32.0 °F 65% 29.81 in 10.0 mi West 18.4 mph 23.0 mph N/A   Clear
9:53 AM 43.0 °F 34.8 °F 30.0 °F 60% 29.80 in 10.0 mi WSW 18.4 mph - N/A   Scattered Clouds
10:53 AM 43.0 °F 34.2 °F 28.9 °F 58% 29.86 in 10.0 mi West 20.7 mph 26.5 mph N/A   Overcast
11:53 AM 39.9 °F 31.1 °F 28.0 °F 63% 29.91 in 10.0 mi West 17.3 mph - N/A   Overcast
12:53 PM 37.9 °F 28.5 °F 30.0 °F 73% 29.91 in 10.0 mi WNW 17.3 mph 23.0 mph 0.00 in Rain Light Rain
1:53 PM 37.9 °F 27.9 °F 30.0 °F 73% 29.93 in 10.0 mi WNW 19.6 mph 24.2 mph 0.00 in   Overcast
2:53 PM 39.9 °F 32.1 °F 32.0 °F 73% 29.92 in 10.0 mi West 13.8 mph - 0.00 in   Overcast
3:53 PM 41.0 °F 33.5 °F 32.0 °F 70% 29.92 in 10.0 mi WNW 13.8 mph - N/A   Overcast
4:53 PM 42.1 °F 33.9 °F 32.0 °F 67% 29.93 in 10.0 mi WNW 17.3 mph - N/A   Overcast
5:53 PM 42.1 °F 35.2 °F 33.1 °F 70% 29.93 in 10.0 mi WNW 12.7 mph - N/A   Overcast
6:53 PM 42.1 °F 40.2 °F 34.0 °F 73% 29.94 in 10.0 mi West 3.5 mph - N/A   Overcast
7:53 PM 42.1 °F 36.6 °F 35.1 °F 76% 29.96 in 10.0 mi NNW 9.2 mph - N/A   Overcast
8:53 PM 41.0 °F 35.8 °F 33.1 °F 73% 30.00 in 10.0 mi NW 8.1 mph - N/A   Overcast
9:53 PM 39.9 °F 35.1 °F 33.1 °F 77% 30.03 in 10.0 mi WNW 6.9 mph - N/A   Overcast
10:53 PM 37.9 °F 30.5 °F 30.9 °F 76% 30.07 in 10.0 mi NW 11.5 mph - N/A   Mostly Cloudy
11:53 PM 35.1 °F 28.6 °F 30.0 °F 82% 30.07 in 10.0 mi NW 8.1 mph - N/A   Clear